FW4270 Weather Reports


time (UTC)temp
F
wind
direction
speed
knots
gust
knots
rain 1hr
in
rain 24hr
in
rain mn
in
humidity
%
barometer
mb
20260509000611 76 38 0.0 0.0 0.00 0.00 0.00 71 1011.4
20260509000111 76 38 0.0 0.0 0.00 0.00 0.00 71 1011.4
20260508235107 76 38 0.0 0.0 0.00 0.00 0.00 71 1011.3
20260508234605 76 38 0.0 0.0 0.00 0.00 0.00 70 1011.3
20260508233605 77 38 0.0 0.0 0.00 0.00 0.00 70 1011.2
20260508233105 77 38 0.0 0.0 0.00 0.00 0.00 70 1011.3
20260508232608 77 38 0.0 0.0 0.00 0.00 0.00 70 1011.1
20260508232107 77 38 0.0 0.0 0.00 0.00 0.00 69 1011.1
20260508231827 77 38 0.0 0.0 0.00 0.00 0.00 68 1011.1
20260508231104 77 38 0.0 0.0 0.00 0.00 0.00 68 1011.1
20260508230600 77 38 0.0 0.0 0.00 0.00 0.00 68 1011.1
20260508230101 77 38 0.0 0.0 0.00 0.00 0.00 67 1011.0
20260508225812 77 38 0.0 0.0 0.00 0.00 0.00 67 1011.0
20260508225321 77 38 0.0 0.0 0.00 0.00 0.00 67 1011.0
20260508224555 77 38 0.0 0.0 0.00 0.00 0.00 67 1010.9
20260508224051 77 38 0.0 0.0 0.00 0.00 0.00 67 1011.0
20260508223549 77 38 0.0 0.0 0.00 0.00 0.00 67 1011.0
20260508223052 77 38 0.0 0.0 0.00 0.00 0.00 67 1011.0
20260508222547 78 38 0.0 0.0 0.00 0.00 0.00 67 1011.0
20260508222045 77 38 0.0 0.0 0.00 0.00 0.00 67 1010.9
20260508221811 78 38 0.0 0.0 0.00 0.00 0.00 67 1011.0
20260508221306 78 38 0.0 0.0 0.00 0.00 0.00 67 1010.9
20260508220536 78 38 0.0 0.0 0.00 0.00 0.00 67 1011.1
20260508220036 78 38 0.0 0.0 0.00 0.00 0.00 67 1011.1
20260508215534 78 38 0.0 0.0 0.00 0.00 0.00 67 1011.2
20260508215030 78 38 0.0 0.0 0.00 0.00 0.00 67 1011.2
20260508214800 78 38 0.0 1.7 0.00 0.00 0.00 67 1011.2
20260508214026 78 40 0.0 3.5 0.00 0.00 0.00 67 1011.2
20260508213013 78 35 0.0 0.0 0.00 0.00 0.00 67 1011.4
20260508212508 78 33 0.0 0.0 0.00 0.00 0.00 68 1011.5
20260508212003 78 33 0.0 0.0 0.00 0.00 0.00 68 1011.6
20260508211456 78 33 0.0 0.0 0.00 0.00 0.00 68 1011.7
20260508210950 78 33 0.0 0.0 0.00 0.00 0.00 67 1011.7
20260508210444 78 33 0.0 0.0 0.00 0.00 0.00 67 1011.7
20260508205432 78 33 0.0 0.0 0.00 0.00 0.00 67 1011.7
20260508204926 79 33 0.0 0.0 0.00 0.00 0.00 66 1011.7
20260508204420 79 33 0.0 0.0 0.00 0.00 0.00 66 1011.7
20260508203914 79 33 0.0 0.0 0.00 0.00 0.00 66 1011.8
20260508203408 79 27 0.0 0.0 0.00 0.00 0.00 66 1011.8
20260508202902 79 27 0.0 0.0 0.00 0.00 0.00 66 1011.8
20260508202357 79 27 0.0 0.0 0.00 0.00 0.00 66 1011.8
20260508201850 79 27 0.0 0.0 0.00 0.00 0.00 66 1011.9
20260508200838 79 22 0.0 0.0 0.00 0.00 0.00 65 1012.0
20260508200332 79 40 0.0 0.0 0.00 0.00 0.00 65 1012.0
20260508195825 79 42 0.0 2.6 0.00 0.00 0.00 65 1012.0
20260508195320 80 42 0.0 2.6 0.00 0.00 0.00 65 1012.1
20260508194814 80 42 0.0 0.0 0.00 0.00 0.00 65 1012.1
20260508194307 80 47 0.0 1.7 0.00 0.00 0.00 65 1012.1
20260508193805 80 47 0.9 4.3 0.00 0.00 0.00 64 1012.2
20260508193304 80 46 0.9 4.3 0.00 0.00 0.00 64 1012.2
20260508192804 80 46 0.9 3.5 0.00 0.00 0.00 64 1012.4
20260508192306 80 46 0.9 3.5 0.00 0.00 0.00 64 1012.2
20260508191816 80 54 0.0 0.0 0.00 0.00 0.00 63 1012.4
20260508191306 80 44 0.0 0.0 0.00 0.00 0.00 63 1012.4
20260508190802 81 51 0.0 0.0 0.00 0.00 0.00 63 1012.5
20260508190302 81 51 0.0 0.0 0.00 0.00 0.00 63 1012.6
20260508185801 81 52 0.9 7.0 0.00 0.00 0.00 62 1012.6
20260508185259 81 53 0.9 7.0 0.00 0.00 0.00 62 1012.6
20260508184756 81 68 0.0 2.6 0.00 0.00 0.00 62 1012.7
20260508184258 81 82 0.0 1.7 0.00 0.00 0.00 62 1012.7
20260508183800 81 82 0.0 0.0 0.00 0.00 0.00 61 1012.7
20260508183255 81 82 0.0 0.0 0.00 0.00 0.00 61 1012.7
20260508182755 81 83 0.0 1.7 0.00 0.00 0.00 61 1012.7
20260508182251 81 90 0.9 3.5 0.00 0.00 0.00 61 1012.8
20260508181748 81 77 0.9 3.5 0.00 0.00 0.00 61 1012.8
20260508181249 81 76 0.9 3.5 0.00 0.00 0.00 60 1012.8
20260508180744 81 73 0.0 0.0 0.00 0.00 0.00 60 1012.8
20260508180238 81 71 0.0 0.0 0.00 0.00 0.00 60 1012.8
20260508175734 81 71 0.0 0.0 0.00 0.00 0.00 60 1012.8
20260508175226 81 71 0.0 0.0 0.00 0.00 0.00 60 1012.8
20260508174720 81 71 0.9 2.6 0.00 0.00 0.00 60 1012.8
20260508174214 81 69 0.9 3.5 0.00 0.00 0.00 59 1012.8
20260508173708 82 69 1.7 5.2 0.00 0.00 0.00 59 1012.8
20260508173201 82 85 1.7 5.2 0.00 0.00 0.00 59 1012.8
20260508172656 82 84 0.9 4.3 0.00 0.00 0.00 59 1012.8
20260508172149 82 76 0.0 0.0 0.00 0.00 0.00 59 1012.7
20260508171641 82 59 0.0 0.0 0.00 0.00 0.00 59 1012.8
20260508171136 82 94 0.0 0.0 0.00 0.00 0.00 59 1012.7
20260508170851 82 94 0.0 0.0 0.00 0.00 0.00 58 1012.8
20260508170124 82 94 0.0 3.5 0.00 0.00 0.00 58 1012.7
20260508165619 82 94 0.0 3.5 0.00 0.00 0.00 58 1012.6
20260508165111 82 98 0.9 2.6 0.00 0.00 0.00 58 1012.6
20260508164607 82 98 0.9 2.6 0.00 0.00 0.00 58 1012.6
20260508164100 83 98 0.9 2.6 0.00 0.00 0.00 58 1012.4
20260508163555 83 98 1.7 3.5 0.00 0.00 0.00 58 1012.5
20260508163048 83 100 2.6 5.2 0.00 0.00 0.00 58 1012.4
20260508162542 83 104 2.6 5.2 0.00 0.00 0.00 58 1012.4
20260508162036 83 90 1.7 5.2 0.00 0.00 0.00 57 1012.4
20260508161752 83 96 0.9 5.2 0.00 0.00 0.00 57 1012.4
20260508161024 83 95 0.9 5.2 0.00 0.00 0.00 57 1012.2
20260508160518 83 113 1.7 5.2 0.00 0.00 0.00 57 1012.1
20260508160013 83 108 2.6 6.1 0.00 0.00 0.00 57 1012.1
20260508155506 83 116 3.5 7.0 0.00 0.00 0.00 57 1012.1
20260508155001 83 102 2.6 7.0 0.00 0.00 0.00 57 1012.1
20260508154454 84 113 1.7 5.2 0.00 0.00 0.00 57 1011.9
20260508154210 84 103 1.7 5.2 0.00 0.00 0.00 57 1011.9
20260508153442 84 103 2.6 5.2 0.00 0.00 0.00 57 1011.8
20260508153154 84 111 2.6 5.2 0.00 0.00 0.00 57 1011.7
20260508152430 84 119 2.6 5.2 0.00 0.00 0.00 57 1011.7
20260508151924 84 117 1.7 4.3 0.00 0.00 0.00 57 1011.8
20260508151638 84 115 1.7 5.2 0.00 0.00 0.00 56 1011.5
20260508150912 85 115 1.7 5.2 0.00 0.00 0.00 56 1011.5
20260508150406 85 109 2.6 6.1 0.00 0.00 0.00 56 1011.4
20260508145900 85 129 2.6 7.0 0.00 0.00 0.00 56 1011.4
20260508145354 85 121 3.5 6.1 0.00 0.00 0.00 56 1011.3
20260508144848 85 117 3.5 7.8 0.00 0.00 0.00 56 1011.3
20260508144342 85 113 3.5 7.8 0.00 0.00 0.00 56 1011.2
20260508143836 85 127 3.5 7.0 0.00 0.00 0.00 56 1011.2
20260508143330 85 123 3.5 7.0 0.00 0.00 0.00 56 1011.1
20260508142824 85 133 3.5 10.4 0.00 0.00 0.00 56 1011.1
20260508141812 85 135 4.3 8.7 0.00 0.00 0.00 55 1011.1
20260508141526 86 117 4.3 8.7 0.00 0.00 0.00 55 1011.1
20260508140800 86 127 3.5 8.7 0.00 0.00 0.00 55 1011.1
20260508140253 86 119 2.6 8.7 0.00 0.00 0.00 55 1011.1
20260508135748 86 132 2.6 6.1 0.00 0.00 0.00 55 1011.0
20260508135244 86 120 3.5 7.0 0.00 0.00 0.00 55 1010.9
20260508134744 86 153 3.5 7.8 0.00 0.00 0.00 54 1010.7
20260508134504 87 149 3.5 7.8 0.00 0.00 0.00 54 1010.8
20260508133744 87 151 3.5 6.1 0.00 0.00 0.00 54 1010.8
20260508133504 87 104 3.5 7.8 0.00 0.00 0.00 54 1010.9
20260508132744 87 127 3.5 8.7 0.00 0.00 0.00 54 1010.9
20260508132244 87 166 3.5 8.7 0.00 0.00 0.00 54 1010.7
20260508131745 87 126 2.6 7.8 0.00 0.00 0.00 54 1010.9
20260508131509 87 144 3.5 10.4 0.00 0.00 0.00 54 1010.9
20260508130746 87 119 3.5 10.4 0.00 0.00 0.00 54 1010.9
20260508130243 87 107 3.5 6.1 0.00 0.00 0.00 54 1011.0
20260508125740 88 140 3.5 8.7 0.00 0.00 0.00 54 1011.0
20260508125238 88 131 4.3 8.7 0.00 0.00 0.00 54 1010.9
20260508124738 88 90 3.5 7.0 0.00 0.00 0.00 54 1010.9
20260508124459 88 113 3.5 8.7 0.00 0.00 0.00 54 1010.8
20260508123741 88 120 4.3 9.6 0.00 0.00 0.00 53 1010.8
20260508123240 88 125 4.3 9.6 0.00 0.00 0.00 53 1010.8
20260508123002 88 146 4.3 8.7 0.00 0.00 0.00 53 1010.7
20260508122232 88 127 4.3 8.7 0.00 0.00 0.00 53 1010.7
20260508121734 88 101 4.3 8.7 0.00 0.00 0.00 53 1010.7
20260508121232 89 123 4.3 8.7 0.00 0.00 0.00 53 1010.6
20260508120730 89 112 4.3 9.6 0.00 0.00 0.00 53 1010.7
20260508120228 89 100 4.3 9.6 0.00 0.00 0.00 53 1010.5
20260508115730 89 99 4.3 9.6 0.00 0.00 0.00 52 1010.5
20260508115230 89 128 5.2 10.4 0.00 0.00 0.00 52 1010.4
20260508114728 89 121 4.3 10.4 0.00 0.00 0.00 52 1010.4
20260508114230 89 94 4.3 10.4 0.00 0.00 0.00 52 1010.4
20260508113728 89 126 4.3 8.7 0.00 0.00 0.00 52 1010.2
20260508113229 90 128 4.3 8.7 0.00 0.00 0.00 51 1010.2
20260508112732 90 135 4.3 10.4 0.00 0.00 0.00 52 1010.2
20260508112232 90 111 4.3 11.3 0.00 0.00 0.00 51 1010.2
20260508111734 90 123 4.3 11.3 0.00 0.00 0.00 51 1010.4
20260508111229 90 156 4.3 8.7 0.00 0.00 0.00 51 1010.4
20260508110728 90 93 5.2 8.7 0.00 0.00 0.00 51 1010.4
20260508110226 90 128 4.3 10.4 0.00 0.00 0.00 52 1010.5
20260508105726 90 142 4.3 10.4 0.00 0.00 0.00 51 1010.5
20260508104728 90 142 4.3 9.6 0.00 0.00 0.00 52 1010.6
20260508104446 90 126 3.5 7.8 0.00 0.00 0.00 51 1010.5
20260508103726 90 150 3.5 7.8 0.00 0.00 0.00 52 1010.5
20260508103228 90 140 3.5 7.8 0.00 0.00 0.00 52 1010.7
20260508102729 90 90 3.5 7.8 0.00 0.00 0.00 51 1010.6
20260508102227 90 113 2.6 7.8 0.00 0.00 0.00 52 1010.7
20260508101727 90 67 3.5 9.6 0.00 0.00 0.00 51 1010.7
20260508101227 90 89 3.5 9.6 0.00 0.00 0.00 51 1010.7
20260508100725 90 136 3.5 10.4 0.00 0.00 0.00 51 1010.8
20260508100458 91 100 3.5 10.4 0.00 0.00 0.00 52 1010.9
20260508095726 91 109 2.6 7.8 0.00 0.00 0.00 51 1010.9
20260508095454 91 84 4.3 10.4 0.00 0.00 0.00 51 1011.0
20260508094726 91 169 3.5 10.4 0.00 0.00 0.00 51 1011.0
20260508094225 91 102 3.5 9.6 0.00 0.00 0.00 50 1011.1
20260508093728 91 115 4.3 9.6 0.00 0.00 0.00 50 1011.1
20260508093226 92 168 4.3 8.7 0.00 0.00 0.00 50 1011.2
20260508092726 92 151 2.6 8.7 0.00 0.00 0.00 50 1011.2
20260508092226 91 237 2.6 12.2 0.00 0.00 0.00 51 1011.1
20260508092003 91 82 4.3 12.2 0.00 0.00 0.00 51 1011.2
20260508091228 91 192 4.3 13.0 0.00 0.00 0.00 50 1011.2
20260508090726 91 156 5.2 13.0 0.00 0.00 0.00 51 1011.3
20260508090224 90 183 6.1 12.2 0.00 0.00 0.00 50 1011.2
20260508085720 91 155 5.2 12.2 0.00 0.00 0.00 50 1011.3
20260508085224 91 118 4.3 8.7 0.00 0.00 0.00 50 1011.3
20260508084718 91 129 4.3 8.7 0.00 0.00 0.00 50 1011.4
20260508084210 91 97 4.3 8.7 0.00 0.00 0.00 50 1011.4
20260508083708 90 149 5.2 10.4 0.00 0.00 0.00 51 1011.3
20260508083429 90 170 5.2 10.4 0.00 0.00 0.00 50 1011.4
20260508082706 90 163 4.3 11.3 0.00 0.00 0.00 51 1011.5
20260508082205 90 143 5.2 11.3 0.00 0.00 0.00 51 1011.4
20260508081706 89 157 5.2 8.7 0.00 0.00 0.00 51 1011.5
20260508081208 89 133 4.3 9.6 0.00 0.00 0.00 51 1011.5
20260508080707 89 128 5.2 9.6 0.00 0.00 0.00 51 1011.5
20260508080205 89 153 4.3 9.6 0.00 0.00 0.00 51 1011.6
20260508075936 89 191 5.2 10.4 0.00 0.00 0.00 53 1011.6
20260508075201 89 128 5.2 10.4 0.00 0.00 0.00 52 1011.6
20260508074702 89 164 5.2 9.6 0.00 0.00 0.00 52 1011.6
20260508074202 88 119 5.2 9.6 0.00 0.00 0.00 53 1011.6
20260508073702 88 95 5.2 9.6 0.00 0.00 0.00 54 1011.6
20260508073201 88 136 4.3 9.6 0.00 0.00 0.00 52 1011.7
20260508072707 88 161 4.3 8.7 0.00 0.00 0.00 52 1011.6
20260508072200 88 101 4.3 8.7 0.00 0.00 0.00 52 1011.6
20260508071922 88 135 5.2 8.7 0.00 0.00 0.00 53 1011.6
20260508071156 87 118 4.3 8.7 0.00 0.00 0.00 54 1011.7
20260508070657 87 108 3.5 9.6 0.00 0.00 0.00 55 1011.7
20260508070417 87 74 3.5 9.6 0.00 0.00 0.00 54 1011.7
20260508065655 87 99 4.3 8.7 0.00 0.00 0.00 53 1011.7
20260508065155 87 130 3.5 7.8 0.00 0.00 0.00 52 1011.8
20260508064654 87 151 4.3 7.8 0.00 0.00 0.00 53 1011.9
20260508064152 86 126 4.3 8.7 0.00 0.00 0.00 55 1011.9
20260508063915 86 98 3.5 8.7 0.00 0.00 0.00 54 1011.8
20260508063155 86 107 3.5 8.7 0.00 0.00 0.00 55 1011.9
20260508062653 86 138 4.3 7.8 0.00 0.00 0.00 55 1011.9
20260508062150 85 121 4.3 9.6 0.00 0.00 0.00 56 1012.0
20260508061651 85 75 5.2 10.4 0.00 0.00 0.00 55 1012.0
20260508061149 85 131 5.2 11.3 0.00 0.00 0.00 55 1012.1
20260508060649 86 166 4.3 11.3 0.00 0.00 0.00 54 1012.1
20260508060150 86 184 5.2 9.6 0.00 0.00 0.00 55 1012.0
20260508055652 86 155 4.3 9.6 0.00 0.00 0.00 55 1012.1
20260508055144 86 137 2.6 7.8 0.00 0.00 0.00 56 1012.1
20260508054901 85 146 2.6 7.8 0.00 0.00 0.00 57 1012.1
20260508054401 85 167 3.5 7.8 0.00 0.00 0.00 56 1012.1
20260508053626 85 142 4.3 7.8 0.00 0.00 0.00 57 1012.1
20260508053119 84 160 3.5 7.8 0.00 0.00 0.00 57 1012.1
20260508052613 84 137 5.2 8.7 0.00 0.00 0.00 58 1012.1
20260508052108 84 146 4.3 9.6 0.00 0.00 0.00 58 1012.2
20260508051601 83 155 3.5 9.6 0.00 0.00 0.00 58 1012.2
20260508051055 83 142 3.5 9.6 0.00 0.00 0.00 59 1012.4
20260508050550 83 109 3.5 9.6 0.00 0.00 0.00 59 1012.2
20260508050043 83 169 3.5 7.0 0.00 0.00 0.00 59 1012.2
20260508045537 83 119 2.6 7.0 0.00 0.00 0.00 60 1012.5
20260508045031 83 121 3.5 7.8 0.00 0.00 0.00 60 1012.4
20260508044525 82 146 4.3 10.4 0.00 0.00 0.00 60 1012.4
20260508044019 82 96 3.5 10.4 0.00 0.00 0.00 60 1012.4
20260508043513 82 123 3.5 7.0 0.00 0.00 0.00 60 1012.4
20260508043008 82 123 3.5 7.0 0.00 0.00 0.00 60 1012.4
20260508042502 82 104 3.5 7.8 0.00 0.00 0.00 61 1012.5
20260508041956 82 138 3.5 7.8 0.00 0.00 0.00 61 1012.5
20260508041450 82 117 3.5 7.8 0.00 0.00 0.00 61 1012.4
20260508040944 81 143 3.5 7.8 0.00 0.00 0.00 61 1012.5
20260508040437 81 127 3.5 7.0 0.00 0.00 0.00 62 1012.5
20260508035931 81 82 3.5 8.7 0.00 0.00 0.00 62 1012.5
20260508035426 81 69 2.6 8.7 0.00 0.00 0.00 62 1012.4
20260508034919 80 113 2.6 7.0 0.00 0.00 0.00 62 1012.4
20260508034413 80 109 2.6 7.0 0.00 0.00 0.00 63 1012.5
20260508034138 80 127 3.5 7.0 0.00 0.00 0.00 63 1012.5
20260508033401 80 83 3.5 7.0 0.00 0.00 0.00 63 1012.5
20260508032855 80 104 2.6 7.0 0.00 0.00 0.00 63 1012.6
20260508032349 79 84 2.6 7.0 0.00 0.00 0.00 64 1012.6
20260508031843 79 97 2.6 7.0 0.00 0.00 0.00 64 1012.6
20260508031337 79 117 3.5 7.0 0.00 0.00 0.00 64 1012.7
20260508030831 79 86 3.5 7.0 0.00 0.00 0.00 64 1012.6
20260508030326 79 110 1.7 6.1 0.00 0.00 0.00 65 1012.6
20260508025820 78 105 1.7 6.1 0.00 0.00 0.00 65 1012.6
20260508025313 78 120 3.5 7.8 0.00 0.00 0.00 65 1012.6
20260508024813 78 132 3.5 7.8 0.00 0.00 0.00 65 1012.6
20260508024541 77 70 3.5 7.0 0.00 0.00 0.00 66 1012.5
20260508023811 77 120 3.5 7.0 0.00 0.00 0.00 66 1012.5
20260508023311 77 135 4.3 8.7 0.00 0.00 0.00 66 1012.5
20260508023033 77 112 4.3 8.7 0.00 0.00 0.00 66 1012.5
20260508022534 77 125 3.5 8.7 0.00 0.00 0.00 66 1012.5
20260508021812 77 127 3.5 7.8 0.00 0.00 0.00 67 1012.4
20260508021311 77 108 4.3 9.6 0.00 0.00 0.00 66 1012.2
20260508020811 76 100 4.3 9.6 0.00 0.00 0.00 66 1012.2
20260508020312 77 94 3.5 7.8 0.00 0.00 0.00 66 1012.2
20260508015811 77 109 3.5 7.8 0.00 0.00 0.00 66 1012.2
20260508015314 76 105 4.3 8.7 0.00 0.00 0.00 66 1012.1
20260508014816 77 93 3.5 8.7 0.00 0.00 0.00 66 1012.2
20260508014542 77 99 3.5 7.8 0.00 0.00 0.00 66 1012.0
20260508014031 76 107 2.6 7.0 0.00 0.00 0.00 66 1012.0
20260508013309 76 92 1.7 5.2 0.00 0.00 0.00 66 1011.9
20260508012809 76 84 1.7 5.2 0.00 0.00 0.00 67 1011.9
20260508012308 76 81 1.7 7.0 0.00 0.00 0.00 67 1011.8
20260508011807 76 108 1.7 7.0 0.00 0.00 0.00 66 1011.8
20260508011310 76 86 2.6 6.1 0.00 0.00 0.00 67 1011.7
20260508010807 76 93 1.7 6.1 0.00 0.00 0.00 67 1011.6
20260508010306 76 94 0.9 3.5 0.00 0.00 0.00 67 1011.6
20260508005807 76 97 1.7 2.6 0.00 0.00 0.00 67 1011.6
20260508005538 76 96 0.9 3.5 0.00 0.00 0.00 66 1011.5
20260508005031 76 97 0.9 3.5 0.00 0.00 0.00 66 1011.5
20260508004303 76 98 0.9 2.6 0.00 0.00 0.00 66 1011.5
20260508003803 76 98 0.9 2.6 0.00 0.00 0.00 66 1011.4
20260508003305 76 93 0.0 2.6 0.00 0.00 0.00 66 1011.4
20260508003024 76 93 0.9 3.5 0.00 0.00 0.00 66 1011.4
20260508002306 76 91 1.7 3.5 0.00 0.00 0.00 66 1011.3
20260508002023 76 86 1.7 3.5 0.00 0.00 0.00 66 1011.2
20260508001303 76 86 0.9 3.5 0.00 0.00 0.00 65 1011.2
20260508001036 76 86 0.0 3.5 0.00 0.00 0.00 65 1011.2